PKPAS WIHH-WICC

Flight info

Callsign PKPAS
Flight time 0h 34m
Altitude 13000
Route PW
Aircraft PC12/L-SDFGRWY/S

Departure

Time 2026-05-04 09:03
Airport Halim Perdanakusuma International Airport (WIHH)

Arrival

Time 2026-05-04 09:37
Airport Husein Sastranegara International Airport (WICC)
Time Latitude Longitude Altitude Speed Heading
2026-05-04 08:48 -6.26675 106.88464 89 ft 0 kts 335°
2026-05-04 08:57 -6.26712 106.88500 89 ft 7 kts 89°
2026-05-04 09:01 -6.26566 106.89208 91 ft 9 kts 121°
2026-05-04 09:01 -6.26611 106.89218 90 ft 0 kts 245°
2026-05-04 09:01 -6.26615 106.89209 90 ft 11 kts 245°
2026-05-04 09:02 -6.26709 106.89005 92 ft 53 kts 246°
2026-05-04 09:02 -6.26922 106.88543 91 ft 89 kts 244°
2026-05-04 09:02 -6.27210 106.87924 144 ft 102 kts 247°
2026-05-04 09:02 -6.27514 106.87253 298 ft 107 kts 251°
2026-05-04 09:03 -6.27814 106.86583 518 ft 102 kts 256°
2026-05-04 09:03 -6.27639 106.85992 680 ft 89 kts 336°
2026-05-04 09:03 -6.27039 106.85953 781 ft 97 kts 22°
2026-05-04 09:03 -6.26535 106.86421 940 ft 102 kts 61°
2026-05-04 09:04 -6.26224 106.87069 1159 ft 102 kts 65°
2026-05-04 09:04 -6.25929 106.87710 1398 ft 99 kts 65°
2026-05-04 09:04 -6.25629 106.88334 1643 ft 98 kts 64°
2026-05-04 09:04 -6.25323 106.88952 1834 ft 101 kts 63°
2026-05-04 09:05 -6.24996 106.89624 2006 ft 113 kts 74°
2026-05-04 09:05 -6.25004 106.90461 2189 ft 129 kts 104°
2026-05-04 09:05 -6.25447 106.91308 2360 ft 147 kts 119°
2026-05-04 09:05 -6.26000 106.92248 2596 ft 162 kts 119°
2026-05-04 09:06 -6.26579 106.93236 2959 ft 167 kts 120°
2026-05-04 09:07 -6.30886 107.00631 5476 ft 182 kts 120°
2026-05-04 09:08 -6.31527 107.01732 5847 ft 183 kts 120°
2026-05-04 09:08 -6.32173 107.02843 6213 ft 185 kts 120°
2026-05-04 09:08 -6.32826 107.03965 6559 ft 187 kts 120°
2026-05-04 09:08 -6.33484 107.05096 6909 ft 188 kts 120°
2026-05-04 09:09 -6.34146 107.06234 7261 ft 189 kts 120°
2026-05-04 09:09 -6.34808 107.07373 7618 ft 189 kts 120°
2026-05-04 09:09 -6.35474 107.08517 7977 ft 190 kts 120°
2026-05-04 09:09 -6.36140 107.09664 8340 ft 190 kts 120°
2026-05-04 09:10 -6.36806 107.10809 8708 ft 190 kts 120°
2026-05-04 09:10 -6.37465 107.11943 9073 ft 190 kts 119°
2026-05-04 09:10 -6.38139 107.13101 9453 ft 190 kts 120°
2026-05-04 09:10 -6.38805 107.14248 9823 ft 191 kts 119°
2026-05-04 09:11 -6.39477 107.15405 10164 ft 191 kts 120°
2026-05-04 09:11 -6.40149 107.16560 10506 ft 191 kts 119°
2026-05-04 09:11 -6.40820 107.17716 10859 ft 192 kts 119°
2026-05-04 09:11 -6.41494 107.18874 11210 ft 192 kts 119°
2026-05-04 09:12 -6.42168 107.20034 11572 ft 193 kts 119°
2026-05-04 09:12 -6.42844 107.21198 11932 ft 193 kts 119°
2026-05-04 09:14 -6.48093 107.30222 12886 ft 242 kts 119°
2026-05-04 09:14 -6.48659 107.31196 12884 ft 245 kts 119°
2026-05-04 09:14 -6.49804 107.33169 12886 ft 248 kts 119°
2026-05-04 09:14 -6.50677 107.34672 12885 ft 250 kts 120°
2026-05-04 09:15 -6.51556 107.36186 12885 ft 251 kts 119°
2026-05-04 09:15 -6.52153 107.37213 12886 ft 252 kts 119°
2026-05-04 09:15 -6.53024 107.38714 12890 ft 252 kts 119°
2026-05-04 09:15 -6.53910 107.40240 12891 ft 253 kts 120°
2026-05-04 09:17 -6.64652 107.46575 12899 ft 260 kts 175°
2026-05-04 09:18 -6.66413 107.46827 12903 ft 258 kts 166°
2026-05-04 09:18 -6.68153 107.47257 12908 ft 258 kts 165°
2026-05-04 09:18 -6.69903 107.47645 12908 ft 258 kts 167°
2026-05-04 09:18 -6.71685 107.47982 12633 ft 266 kts 168°
2026-05-04 09:19 -6.73527 107.48327 12141 ft 269 kts 168°
2026-05-04 09:19 -6.75368 107.48690 11663 ft 270 kts 167°
2026-05-04 09:19 -6.77217 107.49060 11189 ft 270 kts 167°
2026-05-04 09:19 -6.79061 107.49427 10723 ft 271 kts 167°
2026-05-04 09:20 -6.80906 107.49790 10264 ft 269 kts 168°
2026-05-04 09:20 -6.82744 107.50152 9808 ft 268 kts 167°
2026-05-04 09:20 -6.84574 107.50521 9311 ft 266 kts 166°
2026-05-04 09:20 -6.86278 107.51138 8827 ft 262 kts 158°
2026-05-04 09:21 -6.88034 107.51633 8434 ft 260 kts 166°
2026-05-04 09:21 -6.89768 107.51799 8420 ft 245 kts 186°
2026-05-04 09:21 -6.91285 107.51146 8419 ft 236 kts 218°
2026-05-04 09:21 -6.92199 107.49825 8420 ft 229 kts 251°
2026-05-04 09:22 -6.92460 107.48277 8427 ft 221 kts 265°
2026-05-04 09:22 -6.92564 107.46777 8494 ft 211 kts 266°
2026-05-04 09:22 -6.92746 107.43701 8495 ft 203 kts 266°
2026-05-04 09:23 -6.92662 107.42315 8496 ft 198 kts 290°
2026-05-04 09:23 -6.91831 107.41264 8494 ft 192 kts 330°
2026-05-04 09:23 -6.90572 107.40992 8493 ft 186 kts 10°
2026-05-04 09:23 -6.89401 107.41454 8497 ft 182 kts 27°
2026-05-04 09:25 -6.86245 107.47853 8504 ft 173 kts 128°
2026-05-04 09:25 -6.86987 107.48801 8505 ft 171 kts 118°
2026-05-04 09:26 -6.87542 107.49858 8509 ft 170 kts 115°
2026-05-04 09:26 -6.88050 107.50911 8509 ft 163 kts 114°
2026-05-04 09:26 -6.88525 107.51918 8469 ft 159 kts 114°
2026-05-04 09:26 -6.88988 107.52909 8216 ft 153 kts 114°
2026-05-04 09:27 -6.89430 107.53866 7977 ft 149 kts 114°
2026-05-04 09:27 -6.89866 107.54808 7739 ft 148 kts 114°
2026-05-04 09:27 -6.90299 107.55742 7498 ft 146 kts 114°
2026-05-04 09:27 -6.90721 107.56652 7267 ft 146 kts 114°
2026-05-04 09:28 -6.91156 107.57591 7033 ft 145 kts 114°
2026-05-04 09:28 -6.91582 107.58511 6795 ft 144 kts 114°
2026-05-04 09:28 -6.91999 107.59408 6631 ft 141 kts 114°
2026-05-04 09:28 -6.92411 107.60298 6492 ft 137 kts 114°
2026-05-04 09:29 -6.92804 107.61145 6350 ft 134 kts 114°
2026-05-04 09:29 -6.93196 107.61991 6206 ft 132 kts 114°
2026-05-04 09:29 -6.93582 107.62824 6054 ft 131 kts 114°
2026-05-04 09:29 -6.93964 107.63649 5910 ft 129 kts 114°
2026-05-04 09:30 -6.94343 107.64466 5763 ft 128 kts 114°
2026-05-04 09:30 -6.94718 107.65275 5608 ft 127 kts 114°
2026-05-04 09:30 -6.95092 107.66081 5471 ft 127 kts 114°
2026-05-04 09:30 -6.95462 107.66879 5329 ft 127 kts 114°
2026-05-04 09:31 -6.95835 107.67685 5181 ft 126 kts 114°
2026-05-04 09:31 -6.96178 107.68494 5041 ft 126 kts 102°
2026-05-04 09:31 -6.96117 107.69349 4915 ft 123 kts 66°
2026-05-04 09:31 -6.95571 107.69988 4791 ft 123 kts 30°
2026-05-04 09:32 -6.94750 107.70155 4665 ft 123 kts 345°
2026-05-04 09:32 -6.94079 107.69674 4560 ft 120 kts 312°
2026-05-04 09:34 -6.92303 107.64680 3512 ft 110 kts 287°
2026-05-04 09:34 -6.92081 107.63956 3300 ft 107 kts 287°
2026-05-04 09:34 -6.91866 107.63247 3213 ft 104 kts 287°
2026-05-04 09:34 -6.91667 107.62563 3200 ft 103 kts 285°
2026-05-04 09:35 -6.91470 107.61865 3100 ft 101 kts 288°
2026-05-04 09:35 -6.91267 107.61216 2974 ft 93 kts 289°
2026-05-04 09:35 -6.91069 107.60603 2865 ft 93 kts 289°
2026-05-04 09:35 -6.90861 107.59975 2744 ft 96 kts 289°
2026-05-04 09:37 -6.90214 107.57679 2421 ft 8 kts 199°
2026-05-04 09:37 -6.90246 107.57700 2422 ft 7 kts 97°
2026-05-04 09:38 -6.90254 107.57745 2420 ft 6 kts 99°
2026-05-04 09:38 -6.90259 107.57788 2422 ft 6 kts 95°
2026-05-04 09:38 -6.90265 107.57833 2423 ft 7 kts 99°
2026-05-04 09:38 -6.90274 107.57888 2426 ft 8 kts 99°
2026-05-04 09:39 -6.90282 107.57942 2422 ft 7 kts 98°
2026-05-04 09:39 -6.90293 107.57957 2424 ft 1 kts 176°
2026-05-04 09:39 -6.90300 107.57956 2418 ft 0 kts 193°